Time,TemperatureF,DewpointF,PressureIn,WindDirection,WindDirectionDegrees,WindSpeedMPH,WindSpeedGustMPH,Humidity,HourlyPrecipIn,Conditions,Clouds,dailyrainin,SolarRadiationWatts/m^2,SoftwareType,DateUTC
2013-03-23 00:00:00,30.0,25.0,-100.00,NW,315,6.0,-999.0,80,-99.99,,,-99.99,0.000000,,2013-03-23 04:00:00,
2013-03-23 00:43:00,30.0,25.0,-100.00,NW,315,6.0,-999.0,80,-99.99,,,-99.99,0.000000,,2013-03-23 04:43:00,
2013-03-23 00:53:00,30.0,25.0,-100.00,NW,315,6.0,-999.0,80,-99.99,,,-99.99,0.000000,,2013-03-23 04:53:00,
2013-03-23 01:00:00,30.0,24.0,-100.00,NW,315,9.0,-999.0,77,-99.99,,,-99.99,0.000000,,2013-03-23 05:00:00,
2013-03-23 01:42:00,30.0,24.0,-100.00,NW,315,9.0,-999.0,77,-99.99,,,-99.99,0.000000,,2013-03-23 05:42:00,
2013-03-23 01:53:00,30.0,24.0,-100.00,NW,315,9.0,-999.0,77,-99.99,,,-99.99,0.000000,,2013-03-23 05:53:00,
2013-03-23 02:00:00,29.0,23.0,-100.00,WNW,292,7.0,-999.0,76,-99.99,,,-99.99,0.000000,,2013-03-23 06:00:00,
2013-03-23 02:42:00,29.0,23.0,-100.00,WNW,292,7.0,-999.0,76,-99.99,,,-99.99,0.000000,,2013-03-23 06:42:00,
2013-03-23 02:52:00,29.0,23.0,-100.00,WNW,292,7.0,-999.0,76,-99.99,,,-99.99,0.000000,,2013-03-23 06:52:00,
2013-03-23 03:00:00,29.0,23.0,-100.00,WNW,292,7.0,-999.0,76,-99.99,,,-99.99,0.000000,,2013-03-23 07:00:00,
2013-03-23 03:42:00,29.0,23.0,-100.00,WNW,292,7.0,-999.0,76,-99.99,,,-99.99,0.000000,,2013-03-23 07:42:00,
2013-03-23 03:52:00,29.0,23.0,-100.00,WNW,292,7.0,-999.0,76,-99.99,,,-99.99,0.000000,,2013-03-23 07:52:00,
2013-03-23 04:00:00,29.0,21.0,-100.00,WNW,292,6.0,-999.0,72,-99.99,,,-99.99,0.000000,,2013-03-23 08:00:00,
2013-03-23 04:42:00,29.0,21.0,-100.00,WNW,292,6.0,-999.0,72,-99.99,,,-99.99,0.000000,,2013-03-23 08:42:00,
2013-03-23 04:53:00,29.0,21.0,-100.00,WNW,292,6.0,-999.0,72,-99.99,,,-99.99,0.000000,,2013-03-23 08:53:00,
2013-03-23 05:00:00,29.0,21.0,-100.00,WSW,247,5.0,-999.0,74,-99.99,,,-99.99,0.000000,,2013-03-23 09:00:00,
2013-03-23 05:43:00,29.0,21.0,-100.00,WSW,247,5.0,-999.0,74,-99.99,,,-99.99,0.000000,,2013-03-23 09:43:00,
2013-03-23 05:53:00,29.0,21.0,-100.00,WSW,247,5.0,-999.0,74,-99.99,,,-99.99,0.000000,,2013-03-23 09:53:00,
2013-03-23 06:00:00,29.0,22.0,-100.00,WNW,292,5.0,-999.0,77,-99.99,,,-99.99,0.000000,,2013-03-23 10:00:00,
2013-03-23 06:43:00,29.0,22.0,-100.00,WNW,292,5.0,-999.0,77,-99.99,,,-99.99,0.000000,,2013-03-23 10:43:00,
2013-03-23 06:53:00,29.0,22.0,-100.00,WNW,292,5.0,-999.0,77,-99.99,,,-99.99,0.000000,,2013-03-23 10:53:00,
2013-03-23 07:00:00,29.0,22.0,-100.00,WNW,292,6.0,-999.0,77,-99.99,,,-99.99,0.000000,,2013-03-23 11:00:00,
2013-03-23 07:42:00,29.0,22.0,-100.00,WNW,292,6.0,-999.0,77,-99.99,,,-99.99,0.000000,,2013-03-23 11:42:00,
2013-03-23 07:52:00,29.0,22.0,-100.00,WNW,292,6.0,-999.0,77,-99.99,,,-99.99,0.000000,,2013-03-23 11:52:00,
2013-03-23 08:00:00,29.0,23.0,-100.00,NW,315,6.0,-999.0,78,-99.99,,,-99.99,3.480000,,2013-03-23 12:00:00,
2013-03-23 08:43:00,29.0,23.0,-100.00,NW,315,6.0,-999.0,78,-99.99,,,-99.99,3.480000,,2013-03-23 12:43:00,
2013-03-23 08:53:00,29.0,23.0,-100.00,NW,315,6.0,-999.0,78,-99.99,,,-99.99,3.480000,,2013-03-23 12:53:00,
2013-03-23 09:00:00,29.0,23.0,-100.00,West,270,6.0,-999.0,77,-99.99,,,-99.99,26.680000,,2013-03-23 13:00:00,
2013-03-23 09:43:00,29.0,23.0,-100.00,West,270,6.0,-999.0,77,-99.99,,,-99.99,26.680000,,2013-03-23 13:43:00,
2013-03-23 09:53:00,29.0,23.0,-100.00,West,270,6.0,-999.0,77,-99.99,,,-99.99,26.680000,,2013-03-23 13:53:00,
2013-03-23 10:00:00,29.0,22.0,-100.00,SSW,202,6.0,-999.0,74,-99.99,,,-99.99,74.239998,,2013-03-23 14:00:00,
2013-03-23 10:43:00,29.0,22.0,-100.00,SSW,202,6.0,-999.0,74,-99.99,,,-99.99,74.239998,,2013-03-23 14:43:00,
2013-03-23 10:53:00,29.0,22.0,-100.00,SSW,202,6.0,-999.0,74,-99.99,,,-99.99,74.239998,,2013-03-23 14:53:00,
2013-03-23 11:00:00,31.0,22.0,-100.00,SW,225,5.0,-999.0,69,-99.99,,,-99.99,177.479996,,2013-03-23 15:00:00,
2013-03-23 11:44:00,31.0,22.0,-100.00,SW,225,5.0,-999.0,69,-99.99,,,-99.99,177.479996,,2013-03-23 15:44:00,
2013-03-23 11:53:00,31.0,22.0,-100.00,SW,225,5.0,-999.0,69,-99.99,,,-99.99,177.479996,,2013-03-23 15:53:00,
2013-03-23 12:00:00,32.0,22.0,-100.00,West,270,3.0,-999.0,66,-99.99,,,-99.99,263.320007,,2013-03-23 16:00:00,
2013-03-23 12:43:00,32.0,22.0,-100.00,West,270,3.0,-999.0,66,-99.99,,,-99.99,263.320007,,2013-03-23 16:43:00,
2013-03-23 12:54:00,32.0,22.0,-100.00,West,270,3.0,-999.0,66,-99.99,,,-99.99,263.320007,,2013-03-23 16:54:00,
2013-03-23 13:00:00,32.0,23.0,-100.00,WNW,292,2.0,-999.0,68,-99.99,,,-99.99,296.959991,,2013-03-23 17:00:00,
2013-03-23 13:43:00,32.0,23.0,-100.00,WNW,292,2.0,-999.0,68,-99.99,,,-99.99,296.959991,,2013-03-23 17:43:00,
2013-03-23 13:53:00,32.0,23.0,-100.00,WNW,292,2.0,-999.0,68,-99.99,,,-99.99,296.959991,,2013-03-23 17:53:00,
2013-03-23 14:00:00,34.0,23.0,-100.00,WSW,247,1.0,-999.0,64,-99.99,,,-99.99,316.679993,,2013-03-23 18:00:00,
2013-03-23 14:43:00,34.0,23.0,-100.00,WSW,247,1.0,-999.0,64,-99.99,,,-99.99,316.679993,,2013-03-23 18:43:00,
2013-03-23 14:53:00,34.0,23.0,-100.00,WSW,247,1.0,-999.0,64,-99.99,,,-99.99,316.679993,,2013-03-23 18:53:00,
2013-03-23 15:00:00,33.0,24.0,-100.00,WSW,247,4.0,-999.0,68,-99.99,,,-99.99,281.880005,,2013-03-23 19:00:00,
2013-03-23 15:43:00,33.0,24.0,-100.00,WSW,247,4.0,-999.0,68,-99.99,,,-99.99,281.880005,,2013-03-23 19:43:00,
2013-03-23 15:53:00,33.0,24.0,-100.00,WSW,247,4.0,-999.0,68,-99.99,,,-99.99,281.880005,,2013-03-23 19:53:00,
2013-03-23 16:00:00,34.0,24.0,-100.00,SW,225,3.0,-999.0,64,-99.99,,,-99.99,272.600006,,2013-03-23 20:00:00,
2013-03-23 16:43:00,34.0,24.0,-100.00,SW,225,3.0,-999.0,64,-99.99,,,-99.99,272.600006,,2013-03-23 20:43:00,
2013-03-23 16:53:00,34.0,24.0,-100.00,SW,225,3.0,-999.0,64,-99.99,,,-99.99,272.600006,,2013-03-23 20:53:00,
2013-03-23 17:00:00,36.0,24.0,-100.00,SW,225,2.0,-999.0,60,-99.99,,,-99.99,299.279999,,2013-03-23 21:00:00,
2013-03-23 17:43:00,36.0,24.0,-100.00,SW,225,2.0,-999.0,60,-99.99,,,-99.99,299.279999,,2013-03-23 21:43:00,
2013-03-23 17:54:00,36.0,24.0,-100.00,SW,225,2.0,-999.0,60,-99.99,,,-99.99,299.279999,,2013-03-23 21:54:00,
2013-03-23 18:00:00,36.0,24.0,-100.00,SSW,202,1.0,-999.0,59,-99.99,,,-99.99,160.080002,,2013-03-23 22:00:00,
2013-03-23 18:43:00,36.0,24.0,-100.00,SSW,202,1.0,-999.0,59,-99.99,,,-99.99,160.080002,,2013-03-23 22:43:00,
2013-03-23 18:53:00,36.0,24.0,-100.00,SSW,202,1.0,-999.0,59,-99.99,,,-99.99,160.080002,,2013-03-23 22:53:00,
2013-03-23 19:00:00,36.0,24.0,-100.00,ESE,112,0.0,-999.0,61,-99.99,,,-99.99,118.320000,,2013-03-23 23:00:00,
2013-03-23 19:43:00,36.0,24.0,-100.00,ESE,112,0.0,-999.0,61,-99.99,,,-99.99,118.320000,,2013-03-23 23:43:00,
2013-03-23 19:53:00,36.0,24.0,-100.00,ESE,112,0.0,-999.0,61,-99.99,,,-99.99,118.320000,,2013-03-23 23:53:00,
2013-03-23 20:00:00,34.0,26.0,-100.00,South,180,1.0,-999.0,71,-99.99,,,-99.99,25.520000,,2013-03-24 00:00:00,
2013-03-23 20:42:00,34.0,26.0,-100.00,South,180,1.0,-999.0,71,-99.99,,,-99.99,25.520000,,2013-03-24 00:42:00,
2013-03-23 20:53:00,34.0,26.0,-100.00,South,180,1.0,-999.0,71,-99.99,,,-99.99,25.520000,,2013-03-24 00:53:00,
2013-03-23 21:00:00,31.0,26.0,-100.00,SW,225,5.0,-999.0,80,-99.99,,,-99.99,0.000000,,2013-03-24 01:00:00,
2013-03-23 21:43:00,31.0,26.0,-100.00,SW,225,5.0,-999.0,80,-99.99,,,-99.99,0.000000,,2013-03-24 01:43:00,
2013-03-23 21:53:00,31.0,26.0,-100.00,SW,225,5.0,-999.0,80,-99.99,,,-99.99,0.000000,,2013-03-24 01:53:00,
2013-03-23 22:00:00,30.0,25.0,-100.00,SW,225,5.0,-999.0,82,-99.99,,,-99.99,0.000000,,2013-03-24 02:00:00,
2013-03-23 22:43:00,30.0,25.0,-100.00,SW,225,5.0,-999.0,82,-99.99,,,-99.99,0.000000,,2013-03-24 02:43:00,
2013-03-23 22:52:00,30.0,25.0,-100.00,SW,225,5.0,-999.0,82,-99.99,,,-99.99,0.000000,,2013-03-24 02:52:00,
2013-03-23 23:00:00,29.0,25.0,-100.00,SSW,202,2.0,-999.0,85,-99.99,,,-99.99,0.000000,,2013-03-24 03:00:00,
2013-03-23 23:43:00,29.0,25.0,-100.00,SSW,202,2.0,-999.0,85,-99.99,,,-99.99,0.000000,,2013-03-24 03:43:00,
2013-03-23 23:53:00,29.0,25.0,-100.00,SSW,202,2.0,-999.0,85,-99.99,,,-99.99,0.000000,,2013-03-24 03:53:00,